GORIZONT 3 [-]

Last updated on Aug. 13, 2020, 5:30 a.m. UTC

1 11648U 79105A   20225.77753962 -.00000165  00000-0  00000-0 0  9992
2 11648  10.9274 311.1467 0011643 193.8614 178.8888  1.00346280101087
UTC
Height (km)
Latitude
Longitude
Inclination
Orbital Period
UTC large
Height (km)
Speed (km/s)
/
Latitude / Longitude
Inclination (degrees)
Orbital Period (minutes)
Azimuth
Elevation
Range (km)
Doppler Factor
iOS Compass Heading
iOS Angle

Next 30 passes for location: Hong Kong

Rise time Rise Azimuth (degrees) Set time Set Azimuth (degrees) Duration Max altitude (degrees)

No matching passes for this satellites